Wind_Speed
38 38 39 39 40 41 42 42 42 43 44 45 45 45 46 46 47 47 48 48 48 49 48 49 50 51 51 51 52 52 52 52 52 51 51 50 50 50 50 50 50 50 51
37 38 38 39 41 41 42 42 43 44 45 45 46 46 47 47 47 48 49 49 50 51 50 49 50 50 51 52 53 53 53 53 53 52 52 51 51 51 50 51 51 52 52
36 37 38 39 39 40 41 42 43 44 44 45 45 46 47 47 47 47 48 49 50 50 51 51 51 51 52 52 52 53 52 52 52 52 51 51 51 51 51 52 52 52 52
35 35 36 37 38 39 40 42 43 43 44 45 45 46 46 47 48 48 48 49 49 50 51 51 51 52 52 52 52 52 51 51 52 52 51 51 51 51 52 52 52 53 53
35 36 36 37 38 39 41 41 42 43 44 45 46 46 47 47 48 49 49 50 50 50 51 51 51 51 51 51 51 51 51 51 51 51 51 51 51 52 52 52 52 52 52
36 37 38 39 40 41 42 42 43 43 44 45 46 47 47 48 49 49 50 50 51 51 51 51 51 51 51 51 51 51 51 51 51 51 51 51 51 52 52 52 52 52 52
38 39 40 40 41 41 42 43 43 44 44 45 46 46 47 48 49 50 50 50 50 51 52 52 51 51 51 51 51 51 51 51 51 51 51 52 52 52 52 52 51 51 52
39 40 40 41 41 42 42 43 44 44 45 45 46 47 47 48 49 49 49 49 49 50 50 51 51 51 51 51 51 50 51 51 51 51 51 51 51 51 51 51 51 51 52
40 41 42 42 42 43 43 43 44 44 45 46 46 46 47 47 48 49 49 49 49 49 49 50 50 50 50 50 49 49 50 50 50 50 50 50 50 50 50 50 50 50 50
42 42 43 43 43 44 44 45 45 45 46 46 46 47 47 48 48 48 48 48 48 48 49 49 49 49 48 48 48 48 48 48 48 49 49 50 49 49 49 50 50 49 49
42 43 43 44 44 45 45 46 47 47 47 47 47 47 47 48 48 48 48 47 47 47 47 47 48 48 47 48 47 47 47 47 47 48 48 48 49 48 48 49 48 48 47
44 44 44 45 45 46 46 47 47 48 48 47 47 47 48 48 48 48 48 47 47 47 46 47 47 47 47 47 46 46 46 46 46 46 47 47 47 47 47 47 47 46 46
45 45 45 45 46 47 47 48 48 48 48 47 47 47 47 47 48 48 47 47 47 46 46 46 46 45 45 45 44 44 44 44 44 44 44 44 44 45 45 45 45 45 45
45 45 46 46 47 48 48 48 48 48 48 48 47 47 47 47 47 47 46 46 46 45 45 44 44 44 43 42 42 42 42 42 42 42 42 43 43 43 43 43 43 43 42
46 46 46 47 48 48 48 48 48 48 48 48 48 47 47 46 46 46 45 45 45 45 43 42 42 42 41 40 40 40 40 40 40 40 40 40 41 41 41 41 41 41 41
46 46 47 47 48 48 48 48 48 48 48 48 47 47 46 45 45 44 44 44 43 43 42 41 41 41 40 39 39 39 39 39 39 39 39 39 40 40 40 40 39 40 40
47 47 47 48 48 48 48 48 47 47 47 47 47 46 45 44 43 43 42 42 42 41 41 41 40 40 39 39 38 38 38 38 37 37 38 38 39 39 39 38 39 39 39
48 48 48 48 49 48 48 48 47 47 46 45 45 45 44 43 42 42 41 41 40 39 39 38 38 38 37 37 37 37 37 37 36 37 37 38 37 37 37 38 38 38 37
49 49 48 48 48 47 47 46 46 45 45 44 44 43 43 42 41 40 39 39 38 38 37 36 35 35 34 35 35 35 35 35 36 36 37 37 36 36 37 37 37 36 35
49 48 48 47 47 46 45 45 45 44 43 43 42 41 41 40 39 38 37 37 36 36 35 34 33 33 33 33 33 34 34 34 35 36 36 36 36 35 35 35 34 33 33
48 48 47 46 46 45 45 44 44 43 42 41 39 39 38 37 36 36 35 35 34 34 33 33 32 32 32 32 32 33 33 33 34 34 35 35 34 34 33 32 32 31 31
48 47 46 45 45 44 44 43 42 41 40 38 37 36 36 36 35 34 34 33 33 33 32 32 31 31 31 31 31 31 31 32 32 33 33 32 32 31 31 30 30 29 29
47 46 45 45 44 43 43 42 41 39 38 36 36 36 35 35 34 34 33 33 32 31 31 30 30 30 30 30 30 30 30 31 31 31 31 30 29 29 28 28 27 27 27
46 45 44 43 43 42 41 40 39 37 36 35 35 34 34 34 33 32 32 32 31 30 30 29 29 29 29 29 29 29 30 30 29 29 29 28 27 27 27 26 26 26 27
44 43 42 41 40 39 39 38 37 36 35 34 33 33 33 32 32 31 31 31 30 30 29 29 28 27 27 27 28 28 28 28 28 27 26 26 25 25 25 25 25 26 26
41 40 40 39 38 37 37 36 35 34 33 32 31 31 31 31 30 30 30 30 29 29 28 27 27 26 26 26 27 27 27 26 26 25 24 24 24 24 24 24 24 25 24
Wind_Direction
270 271 271 271 271 271 272 273 275 276 277 277 278 279 280 280 280 281 281 281 281 281 281 281 281 281 282 283 283 284 284 285 285 286 286 286 286 287 286 286 286 286 286
272 272 272 273 273 273 273 274 276 277 278 279 279 279 280 281 281 282 282 282 282 281 282 282 283 283 283 283 283 284 284 285 285 286 286 286 287 287 287 287 286 286 286
273 273 274 275 275 275 275 276 277 278 279 279 280 280 281 281 282 283 283 283 282 282 283 283 283 284 284 284 284 284 284 285 286 286 286 286 286 287 287 287 287 286 286
275 275 275 276 277 278 278 278 279 280 280 281 281 282 282 282 283 283 283 283 283 283 283 283 283 284 284 284 284 285 285 285 285 286 286 286 286 287 287 287 286 286 286
277 276 277 278 280 281 281 282 282 282 282 282 283 283 283 284 284 283 283 283 284 284 283 283 283 283 284 284 285 285 285 285 285 286 286 286 287 287 287 286 286 286 287
278 278 279 280 281 282 282 283 283 284 283 283 284 284 284 284 284 284 284 284 284 284 284 283 283 283 283 284 284 285 285 285 286 286 286 287 287 288 288 287 287 287 287
280 281 281 282 282 283 283 284 284 285 285 285 285 285 285 284 284 285 284 284 284 284 283 283 283 283 283 284 284 284 285 285 286 287 287 288 289 289 289 289 289 288 288
281 282 282 283 283 283 284 285 286 287 287 287 287 286 286 285 285 285 285 285 284 284 284 283 283 283 284 284 284 284 285 285 286 287 288 289 289 290 290 290 289 289 289
282 282 282 283 283 284 285 286 287 288 288 288 289 288 287 286 285 285 286 286 285 284 284 283 284 284 284 285 285 285 285 286 287 288 289 290 290 291 291 291 290 290 290
282 283 283 283 284 284 285 286 287 288 289 290 290 288 287 287 287 286 286 286 285 285 284 284 284 284 284 285 285 285 285 286 287 288 289 290 291 291 292 292 292 291 291
283 284 284 284 284 285 286 287 287 288 289 289 289 288 288 287 287 287 287 286 286 286 285 285 284 284 284 285 286 286 286 287 288 288 290 291 292 292 292 292 292 292 292
284 284 284 284 285 286 287 288 288 289 289 289 288 288 288 288 287 287 286 286 286 286 286 286 286 286 286 286 286 286 286 288 288 289 290 291 292 292 293 293 293 293 293
284 284 284 285 286 287 287 288 288 289 289 289 289 288 288 288 287 287 287 287 286 286 286 286 286 286 286 286 286 287 287 288 289 290 291 292 292 293 293 294 295 295 295
285 285 285 285 287 288 288 288 289 289 289 289 288 288 288 287 287 287 287 287 287 287 286 286 286 286 287 287 287 287 289 290 290 291 292 293 294 294 293 293 294 295 295
286 286 286 287 288 288 288 288 288 289 289 288 288 287 287 286 286 286 287 286 287 287 287 287 287 287 287 286 287 288 289 290 291 292 293 294 295 295 294 294 295 295 296
287 287 287 288 289 289 288 288 288 288 288 288 288 288 287 287 286 286 286 286 286 286 286 287 287 287 286 286 287 288 289 290 291 292 294 295 296 296 295 295 295 296 297
287 287 287 288 289 289 289 289 288 288 288 288 288 288 288 288 287 287 286 286 285 285 285 286 286 285 285 285 286 287 288 289 291 292 294 295 296 296 296 296 297 298 298
287 287 287 288 288 288 288 289 288 288 288 288 288 288 288 288 288 287 286 286 286 286 286 286 285 284 285 285 286 287 287 289 290 293 295 296 297 297 297 298 298 299 299
287 288 288 288 288 288 288 288 288 288 287 288 288 288 288 288 288 287 286 286 286 286 286 286 285 285 285 285 286 287 287 288 290 293 295 296 296 297 298 299 300 300 300
288 289 288 288 287 288 288 288 288 288 288 288 287 287 288 288 288 287 287 286 286 286 285 284 284 284 286 287 288 288 289 290 292 294 295 296 297 298 299 300 301 301 301
288 288 288 287 287 287 287 288 288 288 287 287 287 287 287 288 288 287 286 286 286 285 284 283 282 284 286 288 289 290 291 292 293 295 295 296 297 299 300 301 301 302 302
288 288 286 286 286 286 287 287 287 288 287 286 286 287 287 288 288 287 286 286 284 284 283 281 281 283 285 287 289 290 291 293 294 296 297 297 298 299 300 301 302 302 303
289 288 286 285 285 286 286 286 286 286 286 286 285 285 286 286 287 287 286 284 283 283 282 281 282 283 284 286 288 289 291 293 294 296 297 298 298 299 300 301 302 303 304
288 287 287 285 285 285 285 285 285 285 285 285 285 285 285 285 285 285 284 283 282 281 281 282 282 282 283 286 288 289 291 293 295 296 297 297 298 299 301 302 303 303 305
287 286 286 285 284 284 284 284 284 283 283 284 285 285 285 284 284 284 284 282 281 281 282 283 282 282 283 285 288 290 291 293 296 297 297 297 297 299 301 302 303 305 306
285 284 283 284 284 284 284 284 283 283 283 283 284 284 285 284 283 284 283 282 281 281 282 282 282 283 284 285 288 289 291 294 296 297 297 297 298 300 301 303 304 305 306
Height
5707 5706 5706 5705 5705 5704 5704 5703 5702 5701 5700 5699 5698 5697 5695 5694 5693 5691 5689 5688 5686 5684 5682 5681 5679 5677 5675 5673 5670 5668 5666 5664 5663 5660 5657 5654 5652 5649 5646 5644 5641 5638 5635
5698 5697 5697 5696 5695 5694 5693 5693 5692 5690 5689 5688 5687 5685 5684 5682 5681 5679 5677 5675 5674 5672 5670 5668 5666 5664 5662 5659 5657 5655 5653 5650 5648 5646 5643 5640 5638 5635 5632 5629 5626 5624 5621
5689 5688 5687 5686 5685 5684 5683 5682 5681 5679 5678 5676 5675 5674 5672 5670 5668 5667 5665 5663 5661 5659 5657 5655 5653 5651 5648 5646 5644 5641 5639 5636 5634 5632 5629 5626 5623 5621 5618 5615 5612 5609 5606
5680 5679 5678 5677 5675 5674 5673 5671 5670 5668 5667 5665 5663 5662 5660 5658 5656 5654 5652 5650 5648 5645 5643 5641 5639 5637 5635 5632 5630 5627 5625 5622 5620 5617 5615 5612 5609 5606 5604 5601 5598 5594 5592
5671 5670 5668 5667 5666 5664 5662 5661 5659 5657 5655 5653 5652 5650 5648 5646 5643 5641 5639 5637 5634 5632 5630 5628 5625 5623 5621 5618 5616 5614 5611 5608 5606 5603 5601 5598 5595 5592 5589 5586 5583 5580 5577
5662 5660 5659 5657 5655 5654 5652 5650 5648 5646 5644 5642 5640 5637 5635 5633 5630 5628 5626 5623 5621 5619 5616 5614 5612 5609 5607 5604 5602 5600 5597 5595 5592 5589 5586 5583 5580 5577 5574 5571 5568 5566 5563
5652 5650 5649 5647 5645 5643 5641 5639 5636 5634 5632 5630 5627 5625 5622 5619 5617 5614 5612 5610 5607 5605 5602 5600 5598 5595 5593 5590 5588 5585 5583 5580 5578 5575 5572 5569 5566 5563 5560 5557 5553 5550 5546
5641 5640 5638 5636 5634 5632 5629 5627 5625 5622 5620 5617 5615 5612 5609 5606 5603 5601 5598 5596 5594 5591 5588 5586 5584 5581 5579 5576 5574 5571 5569 5566 5564 5561 5558 5555 5552 5548 5545 5542 5538 5535 5532
5631 5629 5627 5624 5622 5620 5618 5615 5613 5610 5608 5605 5602 5599 5596 5593 5590 5587 5585 5583 5580 5577 5574 5572 5570 5567 5565 5563 5561 5558 5555 5552 5549 5546 5544 5540 5537 5534 5531 5527 5524 5520 5517
5619 5617 5615 5612 5610 5608 5605 5603 5600 5598 5595 5592 5589 5586 5583 5580 5577 5574 5571 5569 5567 5564 5561 5558 5556 5553 5551 5548 5546 5544 5541 5538 5536 5533 5530 5526 5523 5520 5516 5513 5510 5506 5502
5607 5605 5602 5600 5598 5595 5593 5590 5587 5585 5582 5579 5576 5573 5570 5567 5564 5561 5558 5555 5553 5550 5547 5545 5542 5540 5537 5535 5532 5530 5528 5525 5522 5519 5516 5513 5510 5507 5503 5499 5496 5492 5488
5595 5592 5590 5587 5585 5582 5580 5577 5574 5571 5568 5565 5562 5559 5556 5553 5550 5547 5544 5542 5540 5537 5534 5532 5529 5527 5524 5522 5519 5517 5514 5512 5509 5507 5504 5501 5497 5494 5490 5486 5482 5479 5475
5582 5579 5577 5574 5572 5569 5566 5563 5560 5557 5555 5552 5549 5546 5543 5540 5537 5534 5531 5529 5526 5524 5521 5519 5516 5514 5511 5509 5507 5504 5502 5499 5497 5494 5491 5488 5485 5481 5478 5474 5471 5467 5463
5569 5566 5564 5561 5559 5556 5553 5550 5547 5544 5541 5538 5535 5533 5530 5527 5524 5521 5518 5516 5513 5511 5508 5506 5503 5501 5499 5497 5494 5492 5490 5488 5485 5483 5479 5476 5473 5469 5466 5463 5459 5455 5451
5556 5553 5550 5548 5545 5542 5539 5536 5533 5530 5527 5524 5522 5519 5516 5514 5510 5507 5505 5503 5500 5498 5496 5493 5491 5489 5487 5485 5483 5481 5479 5476 5474 5471 5468 5465 5461 5458 5454 5451 5447 5444 5440
5542 5539 5537 5534 5531 5528 5525 5523 5519 5516 5513 5510 5507 5505 5502 5500 5497 5495 5492 5490 5487 5485 5483 5481 5479 5477 5475 5473 5472 5470 5468 5465 5463 5460 5457 5454 5450 5447 5443 5439 5436 5432 5429
5528 5526 5523 5520 5517 5514 5511 5509 5506 5504 5500 5497 5494 5491 5489 5486 5484 5482 5479 5477 5475 5473 5471 5469 5467 5465 5464 5462 5460 5459 5456 5454 5452 5449 5446 5443 5440 5436 5433 5429 5425 5421 5417
5514 5512 5509 5506 5503 5500 5497 5494 5492 5490 5488 5485 5481 5478 5476 5473 5471 5469 5467 5465 5463 5461 5459 5458 5456 5454 5452 5451 5449 5448 5446 5443 5441 5438 5436 5432 5429 5426 5422 5418 5414 5411 5407
5500 5497 5494 5492 5489 5486 5483 5481 5478 5476 5473 5471 5469 5466 5463 5461 5459 5457 5455 5453 5451 5450 5448 5446 5445 5443 5442 5440 5439 5437 5435 5433 5430 5428 5425 5422 5418 5415 5412 5408 5404 5400 5396
5486 5483 5480 5478 5475 5472 5470 5467 5465 5462 5460 5458 5456 5454 5451 5449 5447 5445 5443 5442 5440 5439 5437 5436 5434 5433 5432 5430 5428 5427 5425 5422 5420 5418 5415 5411 5408 5405 5401 5398 5394 5390 5387
5472 5469 5466 5463 5461 5459 5456 5454 5452 5449 5447 5445 5444 5441 5439 5438 5436 5434 5432 5431 5429 5428 5427 5425 5424 5423 5422 5420 5419 5417 5415 5412 5410 5407 5404 5401 5398 5395 5392 5388 5385 5381 5378
5457 5455 5452 5450 5448 5445 5443 5441 5439 5437 5435 5433 5432 5430 5428 5426 5425 5423 5421 5420 5419 5418 5416 5415 5415 5414 5412 5411 5409 5407 5405 5403 5400 5398 5395 5392 5389 5386 5383 5380 5376 5373 5370
5442 5440 5438 5436 5434 5432 5430 5428 5426 5425 5423 5422 5420 5419 5417 5415 5414 5412 5411 5410 5409 5408 5407 5406 5405 5404 5403 5402 5400 5398 5396 5394 5391 5389 5386 5383 5380 5377 5375 5372 5369 5365 5362
5428 5426 5424 5422 5420 5419 5417 5416 5414 5413 5411 5410 5409 5407 5406 5405 5403 5402 5401 5400 5399 5398 5398 5397 5396 5395 5393 5392 5391 5389 5387 5385 5382 5380 5377 5375 5372 5370 5367 5364 5361 5358 5355
5414 5412 5410 5409 5407 5406 5405 5404 5402 5401 5400 5399 5398 5396 5395 5394 5393 5392 5391 5390 5390 5389 5388 5387 5386 5385 5384 5383 5382 5380 5378 5376 5374 5371 5369 5367 5364 5362 5360 5357 5354 5351 5348
5400 5399 5397 5396 5395 5394 5393 5392 5391 5390 5389 5388 5387 5386 5385 5384 5383 5382 5381 5380 5380 5380 5379 5378 5378 5377 5376 5374 5373 5372 5370 5368 5366 5364 5361 5359 5357 5355 5352 5350 5347 5344 5341